Regional Weather Roundup
Issued by NWS Cleveland, OH

Home | Current Version | Previous Version | Graphics & Text | Print | Product List | Glossary On
Versions: 1 2 3 4 5 6 7 8 9 10 11 12 13 14 15 16 17 18 19 20 21 22 23 24 25 26 27 28 29 30 31 32 33 34 35 36 37 38 39 40 41 42 43 44 45 46 47 48 49 50
234
ASUS41 KCLE 250412
RWRCLE
OHIO REGIONAL WEATHER ROUNDUP
NATIONAL WEATHER SERVICE WILMINGTON, OH
1200 AM EDT MON SEP 25 2017

NOTE: "FAIR" INDICATES FEW OR NO CLOUDS BELOW 12,000 FEET WITH NO
SIGNIFICANT WEATHER AND/OR OBSTRUCTIONS TO VISIBILITY.

OHZ001>008-015>018-024>027-034-035-043-044-250500-
   NORTHWEST OHIO

CITY           SKY/WX    TMP DP  RH WIND       PRES   REMARKS
DEFIANCE       FAIR      70  64  81 E3        30.07F
FINDLAY        FAIR      73  64  73 E5        30.07S
TOLEDO EXPRESS FAIR      72  68  87 E5        30.07F
TOLEDO EXEC    FAIR      72  67  84 E5        30.08F
LIMA           FAIR      66  60  81 E3        30.08S
$$

OHZ009>014-019>023-028>033-038-089-250500-
   NORTHEAST OHIO

CITY           SKY/WX    TMP DP  RH WIND       PRES   REMARKS
CLE-HOPKINS    FAIR      75  66  73 CALM      30.10F
CLE-LAKEFRONT  FAIR      73  67  81 CALM      30.08S
CUY CO. ARPT   NOT AVBL
LORAIN-ELYRIA  FAIR      64  59  83 CALM      30.09F
ASHTABULA      FAIR      65  65 100 CALM      30.12S FOG
AKRON-CANTON   FAIR      71  61  70 NE7       30.11F
WOOSTER        FAIR      62  61  96 CALM      30.11S
MANSFIELD      FAIR      70  61  73 CALM      30.11S
YOUNGSTOWN     FAIR      67  66  97 NE5       30.11F
$$

OHZ042-051>053-060>062-070>072-077>081-250500-
  SOUTHWEST OHIO

CITY           SKY/WX    TMP DP  RH WIND       PRES   REMARKS
CINC-COVINGTON MOCLDY    71  56  58 SE3       30.05F
CINC-LUNKEN    FAIR      64  61  90 CALM      30.05F
HAMILTON       FAIR      63  60  90 CALM      30.06F
DAYTON         MOCLDY    70  55  59 CALM      30.07F
WRIGHT-PAT AFB FAIR      67  62  85 N5        30.06F
DAYTON GENERAL FAIR      71  57  61 E7        30.05F
WILMINGTON     FAIR      65  61  87 E5        30.06F
$$

OHZ036-037-039>041-045>050-054>059-063>069-073>076-082>088-250500-
  CENTRAL AND SOUTHEAST OHIO

CITY           SKY/WX    TMP DP  RH WIND       PRES   REMARKS
COLUMBUS       FAIR      70  64  81 NE3       30.07S
OSU AIRPORT    FAIR      70  63  78 CALM      30.08S
BOLTON FIELD   FAIR      65  63  93 W5        30.08S
RICKENBACK AFB FAIR      68  64  88 NE5       30.06S
NEWARK         FAIR      65  63  93 CALM      30.08S
MARION         FAIR      66  59  78 NE3       30.09S
LANCASTER      FAIR      61  61 100 CALM      30.08S
ZANESVILLE     FAIR      69  64  84 CALM      30.08S
NEW PHILLY     FAIR      65  64  97 CALM      30.10S
$$




USA.gov is the U.S. government's official web portal to all federal, state and local government web resources and services.